Weather WX

World > North America > United States > Missouri

Forest Green, Missouri Regional Weather

Lat: 39.31N, Lon: 92.84W
Wx Zone: MOZ032
Warning FLW WEATHER ALERT - (More Info. Click Here) Warning
Feedback

Forest Green, MO Regional Weather

Expires:201906182100;;695428
ASUS43 KEAX 182010
RWREAX

WEATHER ROUNDUP FOR EASTERN KANSAS AND NORTHWEST MISSOURI
NATIONAL WEATHER SERVICE KANSAS CITY/PLEASANT HILL MO
300 PM CDT TUE JUN 18 2019


MOZ001>008-011>017-020>025-030>033-038>040-044>046-053-054-182100-
...NORTHERN AND CENTRAL MISSOURI...
  
CITY           SKY/WX    TMP DP  RH WIND       PRES   REMARKS
ST. JOSEPH     MOSUNNY   78  62  57 SE7       29.88F                  
WARRENSBURG    MOSUNNY   77  64  65 NE5       29.89F                  
WHITEMAN AFB   PTSUNNY   78  68  69 E6        29.86F                  
CLINTON        SUNNY     81  66  61 CALM      29.89F                  
SEDALIA        MOSUNNY   77  69  76 E8        29.91F                  
WARSAW         NOT AVBL                                               
CHILLICOTHE      N/A     77  66  68 SE6       29.91F                  
KIRKSVILLE     PTSUNNY   80  62  54 VRB5      29.92F                  

$$


SKY/WX - Weather  TMP - Temperature  DP - Dew Point  RH - Relative Humidity
WIND - Wind Direction/Speed PRES - Barometric Pressure VSB - Visibility
WCI - Wind Chill Index E13G22 Wind - East Wind 13 mph/Gusts of 22 mph